• Em Portugal
  • Lista de países
  • Para 7 dias
  • Temperatura da água
  • Mapas de satélite
  • Mapa do tempo
  • Widgets de tempo
  • user-avatar
    Iniciar Sessão

    Previsão horária em Krizhopol

    Hoje, 14 Novembro, Quarta-feira

    Tempo Temperatura Precipitação Vento Pressão Humidade
    00:00 -4°C° 0 mm 4 m/s 747 mmHg 59%
    01:00 -4°C° 0 mm 4 m/s 747 mmHg 59%
    02:00 -4°C° 0 mm 4 m/s 746 mmHg 59%
    03:00 -4°C° 0 mm 4 m/s 746 mmHg 58%
    04:00 -4°C° 0 mm 4 m/s 745 mmHg 58%
    05:00 -4°C° 0 mm 4 m/s 745 mmHg 57%
    06:00 -4°C° 0.2 mm 4 m/s 745 mmHg 62%
    07:00 -4°C° 0.2 mm 4 m/s 744 mmHg 67%
    08:00 -4°C° 0.2 mm 4 m/s 744 mmHg 72%
    09:00 -4°C° 0.8 mm 4 m/s 744 mmHg 77%
    10:00 -4°C° 0.8 mm 3 m/s 744 mmHg 83%
    11:00 -2°C° 0.8 mm 3 m/s 744 mmHg 89%
    12:00 -2°C° 0.4 mm 3 m/s 744 mmHg 89%
    13:00 -1°C° 0.4 mm 3 m/s 743 mmHg 89%
    14:00 -1°C° 0.4 mm 3 m/s 743 mmHg 89%
    15:00 -1°C° 0 mm 3 m/s 743 mmHg 90%
    16:00 +1°C° 0 mm 2 m/s 743 mmHg 91%
    17:00 +1°C° 0 mm 2 m/s 743 mmHg 91%
    18:00 +1°C° 0 mm 2 m/s 743 mmHg 92%
    19:00 +2°C° 0 mm 2 m/s 742 mmHg 93%
    20:00 +2°C° 0 mm 2 m/s 742 mmHg 93%
    21:00 +2°C° 0 mm 2 m/s 742 mmHg 94%
    22:00 +2°C° 0 mm 2 m/s 742 mmHg 94%
    23:00 +2°C° 0 mm 2 m/s 742 mmHg 95%

    Amanhã, 15 Novembro, Quinta-feira

    Tempo Temperatura Precipitação Vento Pressão Humidade
    00:00 +2°C° 0.1 mm 2 m/s 742 mmHg 95%
    01:00 +3°C° 0.1 mm 1 m/s 742 mmHg 95%
    02:00 +3°C° 0.1 mm 1 m/s 742 mmHg 95%
    03:00 +3°C° 0.2 mm 1 m/s 742 mmHg 96%
    04:00 +3°C° 0.2 mm 1 m/s 741 mmHg 96%
    05:00 +4°C° 0.2 mm 1 m/s 741 mmHg 96%
    06:00 +4°C° 0.1 mm 1 m/s 742 mmHg 97%
    07:00 +4°C° 0.1 mm 1 m/s 742 mmHg 97%
    08:00 +4°C° 0.1 mm 1 m/s 742 mmHg 97%
    09:00 +4°C° 0.1 mm 1 m/s 742 mmHg 95%
    10:00 +4°C° 0.1 mm 2 m/s 743 mmHg 93%
    11:00 +4°C° 0.1 mm 2 m/s 743 mmHg 92%
    12:00 +4°C° 0 mm 2 m/s 743 mmHg 89%
    13:00 +4°C° 0 mm 2 m/s 744 mmHg 87%
    14:00 +3°C° 0 mm 3 m/s 744 mmHg 85%
    15:00 +3°C° 0 mm 3 m/s 744 mmHg 86%
    16:00 +3°C° 0 mm 3 m/s 745 mmHg 87%
    17:00 +2°C° 0 mm 3 m/s 745 mmHg 87%
    18:00 +2°C° 0 mm 3 m/s 746 mmHg 87%
    19:00 +1°C° 0 mm 4 m/s 746 mmHg 87%
    20:00 +1°C° 0 mm 4 m/s 747 mmHg 86%
    21:00 +1°C° 0 mm 4 m/s 747 mmHg 86%
    22:00 +1°C° 0 mm 4 m/s 747 mmHg 85%
    23:00 0°C° 0 mm 4 m/s 748 mmHg 85%

    Depois de amanhã, 16 Novembro, Sexta-feira

    Tempo Temperatura Precipitação Vento Pressão Humidade
    00:00 0°C° 0 mm 4 m/s 748 mmHg 85%
    01:00 -1°C° 0 mm 4 m/s 748 mmHg 85%
    02:00 -1°C° 0 mm 4 m/s 748 mmHg 85%
    03:00 -2°C° 0 mm 4 m/s 748 mmHg 86%
    04:00 -2°C° 0 mm 4 m/s 749 mmHg 87%
    05:00 -3°C° 0 mm 4 m/s 749 mmHg 88%
    06:00 -3°C° 0 mm 4 m/s 749 mmHg 87%
    07:00 -3°C° 0 mm 4 m/s 749 mmHg 86%
    08:00 -3°C° 0 mm 4 m/s 750 mmHg 85%
    09:00 -2°C° 0 mm 4 m/s 750 mmHg 77%
    10:00 -1°C° 0 mm 5 m/s 750 mmHg 69%
    11:00 0°C° 0 mm 5 m/s 750 mmHg 61%
    12:00 0°C° 0 mm 5 m/s 750 mmHg 59%
    13:00 +1°C° 0 mm 5 m/s 750 mmHg 57%
    14:00 +1°C° 0 mm 5 m/s 750 mmHg 55%
    15:00 +1°C° 0 mm 5 m/s 750 mmHg 59%
    16:00 0°C° 0 mm 5 m/s 750 mmHg 63%
    17:00 -1°C° 0 mm 4 m/s 750 mmHg 67%
    18:00 -2°C° 0 mm 5 m/s 750 mmHg 68%
    19:00 -2°C° 0 mm 5 m/s 750 mmHg 70%
    20:00 -4°C° 0 mm 5 m/s 750 mmHg 72%
    21:00 -4°C° 0 mm 5 m/s 750 mmHg 72%
    22:00 -3°C° 0 mm 4 m/s 751 mmHg 71%
    23:00 -3°C° 0 mm 4 m/s 751 mmHg 71%

    17 Novembro, Sábado

    Tempo Temperatura Precipitação Vento Pressão Humidade
    00:00 -4°C° 0 mm 4 m/s 751 mmHg 69%
    01:00 -4°C° 0 mm 4 m/s 750 mmHg 67%
    02:00 -4°C° 0 mm 4 m/s 750 mmHg 65%
    03:00 -4°C° 0 mm 4 m/s 750 mmHg 64%
    04:00 -4°C° 0 mm 4 m/s 750 mmHg 62%
    05:00 -4°C° 0 mm 4 m/s 750 mmHg 60%
    06:00 -4°C° 0 mm 4 m/s 750 mmHg 60%
    07:00 -4°C° 0 mm 4 m/s 750 mmHg 59%
    08:00 -4°C° 0 mm 4 m/s 751 mmHg 58%
    09:00 -3°C° 0 mm 4 m/s 751 mmHg 54%
    10:00 -2°C° 0 mm 5 m/s 751 mmHg 51%
    11:00 -1°C° 0 mm 5 m/s 751 mmHg 47%
    12:00 -1°C° 0 mm 4 m/s 750 mmHg 46%
    13:00 0°C° 0 mm 4 m/s 750 mmHg 46%
    14:00 +1°C° 0 mm 4 m/s 750 mmHg 45%
    15:00 0°C° 0 mm 4 m/s 750 mmHg 49%
    16:00 -1°C° 0 mm 4 m/s 750 mmHg 54%
    17:00 -1°C° 0 mm 3 m/s 749 mmHg 58%
    18:00 -2°C° 0 mm 3 m/s 749 mmHg 60%
    19:00 -2°C° 0 mm 3 m/s 749 mmHg 61%
    20:00 -2°C° 0 mm 3 m/s 749 mmHg 63%
    21:00 -4°C° 0 mm 3 m/s 749 mmHg 63%
    22:00 -3°C° 0 mm 2 m/s 749 mmHg 63%
    23:00 -3°C° 0 mm 2 m/s 749 mmHg 63%

    18 Novembro, Domingo

    Tempo Temperatura Precipitação Vento Pressão Humidade
    00:00 -3°C° 0 mm 2 m/s 748 mmHg 62%
    01:00 -4°C° 0 mm 2 m/s 748 mmHg 60%
    02:00 -4°C° 0 mm 2 m/s 747 mmHg 59%
    03:00 -4°C° 0 mm 2 m/s 747 mmHg 57%
    04:00 -4°C° 0 mm 2 m/s 746 mmHg 56%
    05:00 -4°C° 0 mm 2 m/s 746 mmHg 54%
    06:00 -4°C° 0 mm 2 m/s 745 mmHg 52%
    07:00 -4°C° 0 mm 2 m/s 745 mmHg 51%
    08:00 -4°C° 0 mm 2 m/s 744 mmHg 49%
    09:00 -2°C° 0 mm 3 m/s 743 mmHg 45%
    10:00 -1°C° 0 mm 3 m/s 743 mmHg 41%
    11:00 -1°C° 0 mm 4 m/s 742 mmHg 37%
    12:00 -1°C° 0.1 mm 4 m/s 742 mmHg 43%
    13:00 -1°C° 0.1 mm 4 m/s 741 mmHg 49%
    14:00 -1°C° 0.1 mm 4 m/s 740 mmHg 55%
    15:00 -1°C° 0.3 mm 4 m/s 740 mmHg 63%
    16:00 -2°C° 0.3 mm 4 m/s 739 mmHg 72%
    17:00 -2°C° 0.3 mm 4 m/s 738 mmHg 81%
    18:00 -1°C° 0.3 mm 3 m/s 738 mmHg 84%
    19:00 -1°C° 0.3 mm 3 m/s 738 mmHg 88%
    20:00 -1°C° 0.3 mm 3 m/s 737 mmHg 92%
    21:00 -1°C° 0.1 mm 2 m/s 737 mmHg 93%
    22:00 -1°C° 0.1 mm 2 m/s 737 mmHg 94%
    23:00 -1°C° 0.1 mm 2 m/s 737 mmHg 94%

    19 Novembro, Segunda-feira

    Tempo Temperatura Precipitação Vento Pressão Humidade
    00:00 -2°C° 0 mm 2 m/s 736 mmHg 95%
    01:00 0°C° 0 mm 1 m/s 736 mmHg 95%
    02:00 0°C° 0 mm 1 m/s 736 mmHg 96%
    03:00 0°C° 0 mm 1 m/s 736 mmHg 96%
    04:00 0°C° 0 mm 1 m/s 736 mmHg 96%
    05:00 0°C° 0 mm 1 m/s 735 mmHg 96%
    06:00 0°C° 0 mm 1 m/s 736 mmHg 96%
    07:00 0°C° 0 mm 1 m/s 736 mmHg 96%
    08:00 0°C° 0 mm 1 m/s 736 mmHg 96%
    09:00 0°C° 0 mm 1 m/s 736 mmHg 92%
    10:00 +1°C° 0 mm 1 m/s 737 mmHg 89%
    11:00 +1°C° 0 mm 2 m/s 737 mmHg 86%
    12:00 +1°C° 0 mm 2 m/s 737 mmHg 84%
    13:00 +2°C° 0 mm 2 m/s 737 mmHg 83%
    14:00 +2°C° 0 mm 2 m/s 737 mmHg 81%
    15:00 0°C° 0 mm 3 m/s 738 mmHg 82%
    16:00 0°C° 0 mm 3 m/s 738 mmHg 83%
    17:00 -1°C° 0 mm 3 m/s 738 mmHg 84%
    18:00 -1°C° 0 mm 3 m/s 738 mmHg 83%
    19:00 -2°C° 0 mm 3 m/s 739 mmHg 81%
    20:00 -2°C° 0 mm 3 m/s 739 mmHg 80%
    21:00 -3°C° 0.3 mm 4 m/s 739 mmHg 83%
    22:00 -2°C° 0.3 mm 4 m/s 739 mmHg 86%
    23:00 -2°C° 0.3 mm 5 m/s 740 mmHg 89%
    Mostrar mais